Regional Weather Roundup
Issued by NWS

Home | Current Version | Previous Version | Graphics & Text | Print | Product List | Glossary Off
Versions: 1 2 3 4 5 6 7 8 9 10 11 12 13 14 15 16 17 18 19 20 21 22 23 24 25 26 27 28 29 30 31 32 33 34 35 36 37 38 39 40 41 42 43 44 45 46 47 48 49 50

000
ASUS45 KCYS 012010
RWRWY

WYOMING REGIONAL WEATHER ROUNDUP
NATIONAL WEATHER SERVICE CHEYENNE WY
200 PM MDT SAT AUG 01 2015

NOTE:  "FAIR" INDICATES FEW OR NO CLOUDS BELOW 12,000 FEET
WITH NO SIGNIFICANT WEATHER AND/OR OBSTRUCTIONS TO VISIBILITY.

WYZ001-012100-
YELLOWSTONE NATIONAL PARK

CITY           SKY/WX    TMP DP  RH WIND       PRES   REMARKS
LK YELLOWSTONE   N/A     75  38  26 VRB3      30.39F
W YELLOWSTONE  NOT AVBL

$$
WYZ002>013-054>058-071-098>099-012100-
NORTHERN WYOMING

CITY           SKY/WX    TMP DP  RH WIND       PRES   REMARKS
JACKSON        SUNNY     81  30  16 CALM      30.27F
CODY           FAIR      90  28  11 S10       30.12F
GREYBULL       FAIR      93  24   8 E5        30.03F
WORLAND        FAIR      93  29  10 NE6       30.06F
SHERIDAN       FAIR      95  25   8 NW10      30.02F
BUFFALO        FAIR      91  28  10 VRB7      30.12F
GILLETTE       FAIR      92  25   9 NW14G22   30.05F
HULETT         FAIR      90  32  12 NW5G10    30.07F
NEWCASTLE      FAIR      91  30  11 NW18      30.04F

$$
WYZ014>020-022>026-101>103-012100-
CENTRAL WYOMING

CITY           SKY/WX    TMP DP  RH WIND       PRES   REMARKS
BIG PINEY      FAIR      85  19   9 N10       30.30F
PINEDALE       FAIR      81  27  13 NW12G17   30.30F
DUBOIS         FAIR      82  19   9 N9G17     30.29F
LANDER         FAIR      90  32  12 VRB5      30.15F
RIVERTON       FAIR      88  30  12 E12       30.16F
CASPER         FAIR      90  30  11 E6        30.13F
DOUGLAS        FAIR      93  36  13 NW13      30.11F

$$
WYZ021-027>030-104>119-012100-
SOUTHERN WYOMING

CITY           SKY/WX    TMP DP  RH WIND       PRES   REMARKS
EVANSTON       FAIR      82  19   9 VRB6      30.31F
KEMMERER       FAIR     N/A N/A N/A NW3       30.31F
FORT BRIDGER   CLEAR     84  25  11 NE3       30.31F
ROCK SPRINGS   FAIR      84  28  13 W10       30.26F
DIXON          FAIR      88  28  11 W9        30.25F
RAWLINS        FAIR      87  22   9 W7G18     30.25F
SARATOGA       FAIR      86  27  11 W7        30.27F
LARAMIE        FAIR      83  30  14 VRB6      30.27F
CHEYENNE       FAIR      88  39  17 S6        30.17F
TORRINGTON     FAIR      95  49  20 CALM      30.01F HX  92
PINE BLUFFS    FAIR      90  37  15 CALM      30.11F

$$


USA.gov is the U.S. government's official web portal to all federal, state and local government web resources and services.